Location: Cicognara
(44.9500°N, 10.4667°E)
Time: 21:59:44
(UTC+00:00)

Cosmos 2322 Rocket - Pass Details

Date: 20 June 2021
Orbit: 833 x 851 km, 71.0° (Epoch: 23 July)

Event Time Altitude Azimuth Distance (km) Brightness Sun altitude
Rises 20:43:42 0° 235° (SW) 3,405 5.4 -12.9°
Reaches altitude 10° 20:46:26 10° 246° (WSW) 2,474 4.8 -13.2°
Maximum altitude 20:51:26 31° 307° (NW) 1,451 4.2 -13.7°
Drops below altitude 10° 20:56:29 10° 9° (N) 2,487 5.3 -14.2°
Sets 20:59:14 0° 20° (NNE) 3,425 5.9 -14.5°
